Regional Weather Roundup
Issued by NWS

Home | Current Version | Previous Version | Text Only | Print | Product List | Glossary Off
Versions: 1 2 3 4 5 6 7 8 9 10 11 12 13 14 15 16 17 18 19 20 21 22 23 24 25 26 27 28 29 30 31 32 33 34 35 36 37 38 39 40 41 42 43 44 45 46 47 48 49 50

000
ASUS43 KMPX 262201
RWRMN
WEATHER ROUNDUP FOR MINNESOTA
NATIONAL WEATHER SERVICE TWIN CITIES/CHANHASSEN MN
500 PM CDT TUE JUL 26 2016


NOTE: "FAIR" INDICATES FEW OR NO CLOUDS BELOW 12,000 FEET WITH NO
SIGNIFICANT WEATHER AND/OR OBSTRUCTIONS TO VISIBILITY. N/A MEANS
CURRENT SKY AND/OR WEATHER CONDITIONS ARE NOT AVAILABLE.

MNZ060>063-068>070-262300-
   Twin Cities Metro

CITY           SKY/WX    TMP DP  RH WIND       PRES   REMARKS
TWIN CITIES    MOSUNNY   90  63  40 SW17G24   29.98S HX  91
ST PAUL        SUNNY     88  65  46 SW18      29.97S HX  90
CRYSTAL        SUNNY     88  64  44 SW20G28   29.96S
BLAINE         SUNNY     91  66  43 SW10      29.98R HX  94
LAKEVILLE      SUNNY     84  68  58 S7        30.01S
EDEN PRAIRIE   SUNNY     89  65  44 SW14      29.98S HX  91
LAKEVILLE      SUNNY     84  68  58 S7        30.01S
SOUTH ST PAUL  SUNNY     89  62  40 SW9       29.98S
LAKE ELMO      FAIR      88  66  48 SW16G22   29.99S HX  90
$$
MNZ001>005-007-008-013>017-022>024-027-028-262300-
   Northwest Minnesota

CITY           SKY/WX    TMP DP  RH WIND       PRES   REMARKS
BEMIDJI        MOSUNNY   84  63  48 NE6       29.96F
HALLOCK        CLOUDY    81  64  57 N9        29.98R
ROSEAU         MOSUNNY   81  68  65 NE7       29.99R
WARROAD        MOSUNNY   79  64  61 E7        30.00R
THIEF RVR FALL CLOUDY    84  64  50 NE6       29.97F
CROOKSTON      PTSUNNY   84  63  48 E6        29.95F
FOSSTON        CLOUDY    84  64  51 NE5       29.97S
DETROIT LAKES  CLOUDY    79  68  69 CALM      29.99F
MOORHEAD       CLOUDY    82  70  65 CALM      29.95F
PARK RAPIDS    PTSUNNY   81  67  62 SW6       29.99R
MAHNOMEN       FAIR      81  69  67 SE5       29.97S
$$
MNZ006-009>011-018-025>026-262300-
   North Central Minnesota

CITY           SKY/WX    TMP DP  RH WIND       PRES   REMARKS
BAUDETTE       MOSUNNY   81  59  47 N10       29.98R
FLAG ISLAND    SUNNY     79  55  44 N13       29.97S
INTL FALLS     SUNNY     83  63  50 NW9       29.96R
WASKISH        SUNNY     86  64  48 W3        29.95F
BIG FORK       SUNNY     84  61  45 N3        29.96F
LONGVILLE      CLOUDY    79  68  69 S5        29.98R
GRAND RAPIDS   PTSUNNY   80  70  71 S6        29.99S
ORR            SUNNY     82  59  44 CALM      29.95R
COOK           MOSUNNY   82  61  47 W3        29.97S
WALKER         FAIR      79  68  68 S3        29.98S
$$
MNZ012-019>021-037-262300-
   Northeast Minnesota

CITY           SKY/WX    TMP DP  RH WIND       PRES   REMARKS
DULUTH         PTSUNNY   79  67  66 W6        29.97S
ELY            SUNNY     82  59  44 W7        29.96R
HIBBING        MOSUNNY   80  69  69 W5        29.96S
EVELETH        MOSUNNY   81  66  60 W5        29.98R
DULUTH HARBOR  PTSUNNY   84  70  61 W9        29.93S THUNDER
TWO HARBORS    CLOUDY    82  72  69 W3        29.93R
SILVER BAY     PTSUNNY   81  68  65 CALM      29.92R
GRAND MARAIS     N/A     65  60  84 W8        29.90F
G MARAIS ARPRT CLOUDY    79  61  53 CALM      29.97F
$$
MNZ029>031-032-039>041-046>048-054>057-064-262300-
   West Central Minnesota

CITY           SKY/WX    TMP DP  RH WIND       PRES   REMARKS
FERGUS FALLS   CLOUDY    81  70  69 W5        29.96F
WHEATON        PTSUNNY   81  68  65 W8        29.99S
MORRIS         CLOUDY    82  64  54 SW8       29.95F
ALEXANDRIA     CLOUDY    84  68  58 W15       29.98S THUNDER
ELBOW LAKE     FAIR      81  69  66 SW7       29.97F
WADENA         CLOUDY    79  70  73 N5        29.97S
GLENWOOD       PTSUNNY   81  72  74 S10       29.98F THUNDER
APPLETON       CLOUDY    82  68  61 W13       29.97F
BENSON         CLOUDY    84  70  61 W12       29.96F
ORTONVILLE     CLOUDY    79  61  53 NW9       29.99S
MADISON        LGT RAIN  81  64  57 W10       30.00S
WILLMAR        FAIR      84  72  65 S5        29.99F
$$
MNZ033>034-036-042>043-049>051-058-059-262300-
   Central Minnesota

CITY           SKY/WX    TMP DP  RH WIND       PRES   REMARKS
ST CLOUD       SUNNY     86  71  60 SW16      29.97F HX  91
SAUK CENTRE    FAIR      84  72  66 S14       29.97F
PAYNESVILLE    CLOUDY    83  67  59 SW14      29.98F
AITKIN         MOSUNNY   81  66  61 CALM      29.96F
PINE RIVER     CLOUDY    79  70  73 CALM      30.01S
BRAINERD       CLOUDY    82  67  60 CALM      29.97F
STAPLES        CLOUDY    81  66  61 CALM      29.97F
LONG PRAIRIE   PTSUNNY   81  70  69 S12       29.98S THUNDER
LITTLE FALLS   MOSUNNY   84  68  58 SW6       29.96F
LITCHFIELD     CLOUDY    86  70  58 SW7       29.99F HX  90
BUFFALO        MOSUNNY   86  62  44 SW9G16    29.99F
MAPLE LAKE     SUNNY     87  71  58 SW6       29.99F HX  92
HUTCHINSON     CLOUDY    85  70  59 S5        30.02S
$$
MNZ037-044-045-052-053-262300-
   East Central Minnesota

CITY           SKY/WX    TMP DP  RH WIND       PRES   REMARKS
PRINCETON      SUNNY     90  70  51 SW7       29.96F HX  95
MORA           CLOUDY    86  70  58 W6        29.98F HX  90
CAMBRIDGE      MOSUNNY   90  72  55 SW6       29.95F HX  96
RUSH CITY      MOSUNNY   86  71  61 NW5       29.96S HX  91
MOOSE LAKE     CLOUDY    79  68  69 CALM      29.95F
HINCKLEY       FAIR      84  70  61 W7        29.96F
CLOQUET        CLOUDY    79  66  65 SW7       29.97R
MCGREGOR       CLOUDY    77  68  73 W3        29.98S
$$
MNZ071>073-080-081-089-090-097-098-262300-
   Southwest Minnesota

CITY           SKY/WX    TMP DP  RH WIND       PRES   REMARKS
MONTEVIDEO     CLOUDY    86  72  62 SW7       29.99F HX  92
GRANITE FALLS  CLOUDY    86  71  61 S7        30.01S HX  92
CANBY          PTSUNNY   82  69  65 SW5       30.02S
MARSHALL       CLOUDY    84  69  60 W5        30.01F
REDWOOD FALLS  CLOUDY    87  64  46 SW12      30.00F
OLIVIA         CLOUDY    82  68  61 S5        30.00F
PIPESTONE      MOSUNNY   82  68  61 S5        30.05S
WINDOM         SUNNY     86  64  48 SW5       30.05S
WORTHINGTON    SUNNY     84  67  56 S8        30.06F
JACKSON        SUNNY     86  63  45 S6        30.06F
TRACY          MOSUNNY   85  69  59 S8        30.03F
SLAYTON        CLOUDY    85  66  52 SW8       30.06S
$$
MNZ065>067-074>077-082>085-091>093-262300-
   South Central Minnesota

CITY           SKY/WX    TMP DP  RH WIND       PRES   REMARKS
MANKATO        SUNNY     84  66  54 SW6       30.03S
NEW ULM        MOSUNNY   86  64  48 SW7       30.02F
ST JAMES       SUNNY     82  63  51 S9        30.04F
FAIRMONT       SUNNY     84  66  54 SW7       30.04F
GLENCOE        MOSUNNY   87  70  56 SW8       30.00F HX  92
FARIBAULT      SUNNY     86  70  58 SW8       30.04R HX  90
OWATONNA       SUNNY     84  64  51 SW7       30.04S
WASECA         SUNNY     82  68  61 SW7       30.05S
ALBERT LEA     SUNNY     84  66  54 SW3       30.05S
$$
MNZ078>079-086>088-094>096-262300-
   Southeast Minnesota

CITY           SKY/WX    TMP DP  RH WIND       PRES   REMARKS
ROCHESTER      MOSUNNY   84  69  60 S7        30.05S
RED WING       SUNNY     90  61  37 SW14G20   29.98S
STANTON        SUNNY     88  66  48 W10       30.00S HX  90
DODGE CENTER   SUNNY     88  66  48 W8        30.05S HX  90
WINONA         SUNNY     90  64  43 W6        30.01S HX  91
AUSTIN         SUNNY     84  64  51 SW5       30.05S
PRESTON        SUNNY     84  65  53 CALM      30.05S
$$
ABBREVIATIONS USED IN REMARKS
   TC - TEMPERATURES IN CELSIUS
  WCI - WIND CHILL INDEX
   HX - HEAT INDEX
  VSB - VISIBILITY
$$




USA.gov is the U.S. government's official web portal to all federal, state and local government web resources and services.